CZ-6A DEB, 56278

Orbit data source: Space-Track

CZ-6A DEB, 56278 is space debris in SSO originally from a launch on Fri, 11 Nov 2022 UTC launched from the Taiyaun Space Center, China (TSC). Debris objects in space refer to the collection of defunct objects orbiting the Earth. Examples of debris include non-operational satellites, rocket bodies, and fragments generated from explosions, collisions, or faulty payload assembly.

Loading next visibility...
Identifier
56278, 2022-151ACW
Orbit
SSO
Country
Flag of CNCN / PRC
Related business
Manufacturer
SAST
Mission
Spacecraft
Bus & Motor
Unknown
Mass
Unknown
Launch date (UTC)
2022-11-11 (4 years ago)
Launch vehicle
Unknown
Launch site
Taiyaun Space Center, China (TSC)
Object type
Payload
Rocket body
Debris
Shape & HBR
Unknown shape, 0.1 m
Radar Cross Section
Medium (>0.1 m² and <1 m²)

Expand to show TLE details & history
Last TLE update: 2 days ago

TLE from 2 days ago
0 CZ-6A DEB
1 56278U 22151ACW 26171.37619916  .00000176  00000-0  15463-3 0  9994
2 56278  98.9508 147.4890 0118755  69.3375 292.0473 13.94314621165511
Epoch: 2026-06-20T09:01Z
TLE epoch observation values (Epoch: 2026-06-20T09:01:43.607Z)
Latitude
0.00003°
Longitude
103.46559°
Altitude
884.8 km
Speed
7.426 km/s
True Right ascension
09h 49m 57s
True Declination
0° 00' 00"
Sunlit
Object was in daylight at epoch
Visualization orbit readout
Latitude
Unknown
Longitude
Unknown
Altitude
Unknown
Speed
Unknown
Apparent Right ascension
Unknown
Apparent Declination
Unknown
Sunlit
N/A
Visualization observer readout
Local Sidereal Time
21:31:55
Azimuth
Unknown
Elevation
Unknown
Doppler factor
Unknown
Orbital elements
Apogee altitude
997.313 km
Perigee altitude
824.194 km
Semi-major axis
7,288.89 km
Eccentricity
0.01188
Inclination
98.9508°
RAAN
147.489°
Arg. of periapsis
69.3375°
True anomaly
290.77902°
Mean anomaly
292.0473°
Eccentric anomaly
291.41385°
Mean motion
3.4878 °/min
Orbital period
103.22 mins
BSTAR
0.00015463
Loading maneuver chart data...
Computing Atmospheric mass density...
Loading historical data...
Loading historical data...
Loading historical data...
Loading historical data...
Loading historical data...
Loading historical data...
Loading historical data...

Documentation

Showing up to 5 results
|